TimeEST,TemperatureF,Dew PointF,Humidity,Sea Level PressureIn,VisibilityMPH,Wind Direction,Wind SpeedMPH,Gust SpeedMPH,PrecipitationIn,Events,Conditions,WindDirDegrees,DateUTC
12:53 AM,23.0,19.9,88,30.19,6.0,SW,4.6,-,N/A,,Overcast,220,2013-01-26 05:53:00
1:04 AM,23.0,19.4,86,30.15,5.0,SW,4.6,-,N/A,,Overcast,220,2013-01-26 06:04:00
1:53 AM,24.1,19.9,84,30.19,7.0,SSW,4.6,-,N/A,,Overcast,210,2013-01-26 06:53:00
2:53 AM,24.1,21.0,88,30.21,6.0,SW,5.8,-,N/A,,Overcast,230,2013-01-26 07:53:00
3:14 AM,24.8,21.2,86,30.17,6.0,SW,5.8,-,N/A,,Overcast,220,2013-01-26 08:14:00
3:53 AM,25.0,21.0,85,30.21,6.0,SW,4.6,-,N/A,,Overcast,220,2013-01-26 08:53:00
4:53 AM,25.0,21.0,85,30.21,7.0,SSW,5.8,-,N/A,,Overcast,210,2013-01-26 09:53:00
5:53 AM,25.0,21.0,85,30.20,7.0,SSW,3.5,-,N/A,,Overcast,210,2013-01-26 10:53:00
6:53 AM,26.1,21.9,84,30.21,7.0,SW,4.6,-,N/A,,Overcast,230,2013-01-26 11:53:00
7:53 AM,27.0,21.9,81,30.23,7.0,SW,4.6,-,N/A,,Overcast,230,2013-01-26 12:53:00
8:18 AM,26.6,21.2,80,30.21,5.0,SW,3.5,-,N/A,,Haze,230,2013-01-26 13:18:00
8:39 AM,26.6,21.2,80,30.22,5.0,SW,3.5,-,N/A,,Haze,230,2013-01-26 13:39:00
8:53 AM,27.0,21.9,81,30.26,6.0,WSW,4.6,-,N/A,,Haze,240,2013-01-26 13:53:00
9:50 AM,28.4,21.2,74,30.25,2.5,West,6.9,-,0.00,Snow,Light Snow,260,2013-01-26 14:50:00
9:53 AM,28.0,21.9,78,30.28,2.5,Variable,6.9,-,0.00,Snow,Light Snow,0,2013-01-26 14:53:00
10:13 AM,28.4,21.2,74,30.26,4.0,West,6.9,-,0.00,,Haze,260,2013-01-26 15:13:00
10:53 AM,28.0,21.0,75,30.30,6.0,West,10.4,16.1,0.00,,Haze,260,2013-01-26 15:53:00
11:53 AM,28.9,19.9,69,30.32,6.0,WSW,5.8,-,N/A,,Haze,250,2013-01-26 16:53:00
12:53 PM,28.9,19.9,69,30.32,6.0,West,10.4,-,N/A,,Haze,260,2013-01-26 17:53:00
1:53 PM,28.9,19.0,67,30.33,6.0,West,10.4,-,N/A,,Haze,270,2013-01-26 18:53:00
2:53 PM,28.9,19.9,69,30.34,5.0,West,8.1,-,N/A,,Haze,270,2013-01-26 19:53:00
3:00 PM,28.4,19.4,69,30.31,5.0,West,4.6,-,N/A,,Haze,270,2013-01-26 20:00:00
3:53 PM,28.9,19.0,67,30.36,6.0,West,6.9,-,N/A,,Haze,270,2013-01-26 20:53:00
4:53 PM,28.9,19.0,67,30.38,7.0,West,8.1,-,N/A,,Overcast,280,2013-01-26 21:53:00
5:05 PM,28.4,17.6,64,30.35,7.0,West,6.9,-,N/A,,Overcast,260,2013-01-26 22:05:00
5:12 PM,28.4,19.4,69,30.35,7.0,West,6.9,-,N/A,,Overcast,280,2013-01-26 22:12:00
5:53 PM,28.9,18.0,64,30.40,9.0,West,6.9,-,N/A,,Overcast,280,2013-01-26 22:53:00
6:53 PM,28.9,17.1,61,30.43,9.0,NW,8.1,-,N/A,,Overcast,310,2013-01-26 23:53:00
7:53 PM,28.0,16.0,61,30.45,10.0,WNW,8.1,-,N/A,,Overcast,300,2013-01-27 00:53:00
8:53 PM,27.0,15.1,61,30.46,10.0,WNW,3.5,-,N/A,,Overcast,300,2013-01-27 01:53:00
9:53 PM,27.0,14.0,58,30.48,10.0,NNW,4.6,-,N/A,,Overcast,330,2013-01-27 02:53:00
10:53 PM,26.1,14.0,60,30.50,10.0,NNW,3.5,-,N/A,,Overcast,340,2013-01-27 03:53:00
11:53 PM,26.1,14.0,60,30.50,10.0,Calm,Calm,-,N/A,,Overcast,0,2013-01-27 04:53:00